Weather History for Huntington, WV

Change the Weather History Date:

Wednesday, November 30, 2011

  Actual Average Record
Temperature  
Mean Temperature 37 °F 42 °F  
Max Temperature 44 °F 50 °F 80 °F (1934)
Min Temperature 30 °F 33 °F 4 °F (1929)
Degree Days  
Heating Degree Days 28 24  
Month to date heating degree days 442 549  
Since 1 July heating degree days 815 887  
Cooling Degree Days 0 0  
Month to date cooling degree days 3 2  
Year to date cooling degree days 1242 1134  
Moisture  
Dew Point 31 °F    
Average Humidity 73    
Maximum Humidity 92    
Minimum Humidity 53    
Precipitation  
Precipitation 0.02 in 0.12 in 2.35 in (2010)
Month to date precipitation 6.20 3.44  
Year to date precipitation 59.13 39.28  
Snow  
Snow 0.00 in - - ()
Month to date snowfall 0.0  
Since 1 September snowfall 0.0  
Snow Depth 0.00 in    
Sea Level Pressure  
Sea Level Pressure 29.99 in    
Wind  
Wind Speed 8 mph (WSW)    
Max Wind Speed 16 mph    
Max Gust Speed 23 mph    
Visibility 10 miles    
Events Rain    
T = Trace of Precipitation, MM = Missing Value Source: NWS Daily Summary

Daily Weather History Graph

Daily Weather History Graph

Search for Another Location

Airport:

Trip Planner

Search our weather history database for the weather conditions in past years. The results will help you decide how hot, cold, wet, or windy it might be!

Date:

Astronomy

Nov. 30, 2011 Rise Set
Actual Time 7:27 AM EST 5:10 PM EST
Civil Twilight 6:58 AM EST 5:39 PM EST
Nautical Twilight 6:25 AM EST 6:12 PM EST
Astronomical Twilight 5:53 AM EST 6:43 PM EST
Moon 11:46 AM EST (11/30) 11:03 PM EST (11/30)
Length of Visible Light 10h 41m
Length of Day
9h 43m
Waxing Crescent, 33% of the Moon is Illuminated
Nov 30
Waxing Crescent
Dec 2
First Quarter
Dec 10
Full
Dec 17
Last Quarter
Dec 24
New

Hourly Weather History & Observations

Time (EST) Temp. Windchill Dew Point Humidity Pressure Visibility Wind Dir Wind Speed Gust Speed Precip Events Conditions
12:29 AM 35.6 °F 27.1 °F 33.8 °F 93% 29.75 in 5.0 mi West 12.7 mph 19.6 mph 0.01 in Rain Rain
12:44 AM 35.6 °F 28.0 °F 33.8 °F 93% 29.75 in 10.0 mi WSW 10.4 mph 18.4 mph 0.02 in   Overcast
12:51 AM 36.0 °F 30.3 °F 33.1 °F 89% 29.76 in 10.0 mi WSW 6.9 mph - 0.02 in   Overcast
1:17 AM 35.6 °F 28.0 °F 33.8 °F 93% 29.76 in 10.0 mi WSW 10.4 mph 18.4 mph N/A   Overcast
1:51 AM 36.0 °F 28.0 °F 33.1 °F 89% 29.79 in 10.0 mi WSW 11.5 mph 18.4 mph N/A   Overcast
2:00 AM 35.6 °F 28.0 °F 33.8 °F 93% 29.78 in 10.0 mi WSW 10.4 mph - N/A   Overcast
2:51 AM 35.1 °F 28.6 °F 33.1 °F 92% 29.82 in 10.0 mi WSW 8.1 mph 18.4 mph 0.00 in Rain Light Rain
2:59 AM 35.6 °F 28.6 °F 33.8 °F 93% 29.81 in 10.0 mi WSW 9.2 mph 17.3 mph 0.00 in   Overcast
3:51 AM 35.1 °F 28.6 °F 33.1 °F 92% 29.83 in 10.0 mi WSW 8.1 mph - 0.00 in   Overcast
4:51 AM 36.0 °F 27.5 °F 32.0 °F 86% 29.87 in 10.0 mi WSW 12.7 mph - 0.00 in Rain Light Rain
5:51 AM 36.0 °F 29.0 °F 32.0 °F 86% 29.89 in 10.0 mi WSW 9.2 mph - 0.00 in   Overcast
6:51 AM 36.0 °F 28.5 °F 33.1 °F 89% 29.92 in 10.0 mi WSW 10.4 mph 16.1 mph 0.00 in Rain Light Rain
7:51 AM 36.0 °F 30.3 °F 33.1 °F 89% 29.96 in 10.0 mi West 6.9 mph - 0.00 in Rain Light Rain
8:51 AM 36.0 °F 28.5 °F 33.1 °F 89% 29.99 in 10.0 mi West 10.4 mph 19.6 mph 0.00 in   Overcast
8:55 AM 35.6 °F 29.2 °F 33.8 °F 93% 29.97 in 10.0 mi West 8.1 mph - N/A   Overcast
9:51 AM 37.0 °F 30.4 °F 33.1 °F 86% 30.03 in 10.0 mi West 9.2 mph 17.3 mph N/A   Overcast
10:51 AM 39.9 °F 32.9 °F 33.1 °F 77% 30.04 in 10.0 mi West 11.5 mph - N/A   Mostly Cloudy
11:51 AM 41.0 °F 34.7 °F 30.0 °F 65% 30.04 in 10.0 mi WSW 10.4 mph 20.7 mph N/A   Overcast
12:22 PM 39.2 °F 31.6 °F 28.4 °F 65% 30.03 in 10.0 mi WSW 12.7 mph 17.3 mph N/A   Overcast
12:51 PM 39.9 °F 32.9 °F 28.0 °F 63% 30.05 in 10.0 mi WSW 11.5 mph 23.0 mph N/A   Overcast
1:51 PM 43.0 °F 37.2 °F 28.0 °F 56% 30.05 in 10.0 mi West 10.4 mph 17.3 mph N/A   Scattered Clouds
2:51 PM 43.0 °F 38.2 °F 27.0 °F 53% 30.07 in 10.0 mi WSW 8.1 mph - N/A   Overcast
3:51 PM 42.1 °F 37.1 °F 28.0 °F 58% 30.09 in 10.0 mi WSW 8.1 mph - N/A   Mostly Cloudy
4:51 PM 39.0 °F 34.0 °F 27.0 °F 62% 30.12 in 10.0 mi West 6.9 mph - N/A   Clear
5:51 PM 37.0 °F 32.4 °F 27.0 °F 67% 30.14 in 10.0 mi SW 5.8 mph - N/A   Clear
6:51 PM 36.0 °F 31.1 °F 27.0 °F 70% 30.17 in 10.0 mi WSW 5.8 mph - N/A   Clear
7:51 PM 35.1 °F 31.0 °F 27.0 °F 72% 30.20 in 10.0 mi SSW 4.6 mph - N/A   Clear
8:51 PM 32.0 °F 27.5 °F 27.0 °F 82% 30.22 in 10.0 mi SSW 4.6 mph - N/A   Clear
9:51 PM 32.0 °F - 26.6 °F 80% 30.22 in 10.0 mi Calm Calm - N/A   Clear
10:51 PM 30.9 °F - 27.0 °F 85% 30.24 in 10.0 mi Calm Calm - N/A   Clear
11:51 PM 30.0 °F 26.5 °F 26.1 °F 85% 30.25 in 10.0 mi South 3.5 mph - N/A   Clear